Location: Coll
(42.4728°N, 0.7714°E)
Time: 12:21:18
(UTC+00:00)

GP-B - Pass Details

Date: 23 October 2020
Orbit: 631 x 635 km, 89.8° (Epoch: 30 November)

Event Time Altitude Azimuth Distance (km) Brightness Sun altitude
Exits shadow 04:38:38 39° 238° (WSW) 956 3.6 -19.3°
Maximum altitude 04:39:32 45° 272° (W) 872 3.3 -19.1°
Drops below altitude 10° 04:43:50 10° 345° (NNW) 2,030 5.6 -18.3°
Sets 04:46:09 0° 352° (N) 2,942 6.5 -17.9°
